Location: La Tine
(46.4708°N, 7.0525°E)
Time: 01:20:20
(UTC+00:00)

Meteor 1-21 - Pass Details

Date: 18 September 2020
Orbit: 845 x 887 km, 81.2° (Epoch: 31 October)

Event Time Altitude Azimuth Distance (km) Brightness Sun altitude
Rises 18:13:10 0° 350° (N) 3,431 7.6 -7.1°
Reaches altitude 10° 18:15:38 10° 353° (N) 2,487 6.9 -7.5°
Maximum altitude 18:21:15 71° 77° (ENE) 898 4.2 -8.4°
Drops below altitude 10° 18:26:49 10° 162° (SSE) 2,461 6.3 -9.4°
Sets 18:29:14 0° 164° (SSE) 3,393 7.1 -9.8°
